Regional Weather Roundup
Issued by NWS

Home | Current Version | Previous Version | Text Only | Print | Product List | Glossary Off
Versions: 1 2 3 4 5 6 7 8 9 10 11 12 13 14 15 16 17 18 19 20 21 22 23 24 25 26 27 28 29 30 31 32 33 34 35 36 37 38 39 40 41 42 43 44 45 46 47 48 49 50

000
ASUS43 KLSX 300759
RWRMO

WEATHER SUMMARY FOR MISSOURI
NATIONAL WEATHER SERVICE SPRINGFIELD MO
300 AM CDT TUE MAY 30 2017

NOTE: "FAIR" INDICATES FEW OR NO CLOUDS BELOW 12,000 FEET WITH NO
       SIGNIFICANT WEATHER AND/OR OBSTRUCTIONS TO VISIBILITY.
       CURRENT SKY AND/OR WEATHER CONDITIONS ARE NOT AVAILABLE FOR
       CHILLICOTHE AND FARMINGTON.

MOZ001>031-035>038-043-044-053-054-300900-
...NORTHERN AND WESTERN MISSOURI...

CITY           SKY/WX    TMP DP  RH WIND       PRES   REMARKS
KANSAS CTY INT PTCLDY    62  40  44 N3        30.07S
KANSAS C DTWN  CLEAR     59  52  77 CALM      30.06S
LEE`S SUMMIT   PTCLDY    61  45  55 CALM      30.07S
ST JOSEPH      CLEAR     54  52  93 CALM      30.06S
CHILLICOTHE      N/A     52  49  89 CALM      30.07S
KIRKSVILLE     CLEAR     50  32  50 W3        30.05R

$$
MOZ066>068-077>081-088>096-101>105-300900-
...SOUTHWEST MISSOURI...

CITY           SKY/WX    TMP DP  RH WIND       PRES   REMARKS
SPRINGFIELD    PTCLDY    60  58  92 CALM      30.05S
JOPLIN         PTCLDY    60  58  92 CALM      30.06S

$$
MOZ032>034-039>042-045>050-055>058-069>072-300900-
...CENTRAL MISSOURI...

CITY           SKY/WX    TMP DP  RH WIND       PRES   REMARKS
COLUMBIA       MOCLDY    60  54  80 NW5       30.04S
JEFFERSON CITY CLEAR     60  56  86 CALM      30.04R
ROLLA          CLEAR     55  52  89 CALM      30.03S
SEDALIA        CLEAR     61  51  70 NW3       30.07R
WARRENSBURG    CLEAR     57  50  77 CALM      30.06S
OSAGE BEACH    PTCLDY    56  54  93 CALM      30.06R

$$
MOZ051-052-059>065-300900-
...EAST CENTRAL MISSOURI...

CITY           SKY/WX    TMP DP  RH WIND       PRES   REMARKS
ST LOUIS INTL  MOCLDY    65  56  72 W3        30.02R
SPIRIT OF STL  PTCLDY    58  56  93 CALM      30.01R
ST CHARLES     MOCLDY    61  58  90 W5        30.01R

$$
MOZ072>076-082>087-097>100-106>115-300900-
...SOUTH CENTRAL AND SOUTHEAST MISSOURI...

CITY           SKY/WX    TMP DP  RH WIND       PRES   REMARKS
CAPE GIRARDEAU CLOUDY    62  59  90 CALM      30.01S
FARMINGTON     PTCLDY    56  55  97 CALM      30.04R
POPLAR BLUFF   MOCLDY    67  60  78 NW5       30.01S
WEST PLAINS    PTCLDY    60  57  89 SW3       30.06R

$$



USA.gov is the U.S. government's official web portal to all federal, state and local government web resources and services.